| time (UTC) | temp C | wind direction | speed KPH | gust KPH | rain 1hr cm | rain 24hr cm | rain mn cm | humidity % | barometer mb |
| 20260507203044 | 12 | 37 | 0.0 | 0.0 | 0.00 | 0.00 | 0.00 | 46 | 1013.1 |
| 20260507201541 | 13 | 41 | 0.0 | 1.6 | 0.00 | 0.00 | 0.00 | 46 | 1013.0 |
| 20260507200039 | 13 | 53 | 0.0 | 1.6 | 0.00 | 0.00 | 0.00 | 46 | 1012.9 |
| 20260507194540 | 13 | 46 | 0.0 | 0.0 | 0.00 | 0.00 | 0.00 | 47 | 1012.8 |
| 20260507193036 | 13 | 60 | 0.0 | 4.8 | 0.00 | 0.00 | 0.00 | 46 | 1012.7 |
| 20260507191533 | 14 | 58 | 0.0 | 9.7 | 0.00 | 0.00 | 0.00 | 45 | 1012.5 |
| 20260507190036 | 14 | 30 | 1.6 | 9.7 | 0.00 | 0.00 | 0.00 | 45 | 1012.6 |
| 20260507184531 | 14 | 36 | 0.0 | 12.9 | 0.00 | 0.00 | 0.00 | 45 | 1012.6 |
| 20260507183031 | 15 | 37 | 0.0 | 8.0 | 0.00 | 0.00 | 0.00 | 45 | 1012.6 |
| 20260507181529 | 15 | 37 | 0.0 | 9.7 | 0.00 | 0.00 | 0.00 | 44 | 1012.5 |
| 20260507180028 | 15 | 33 | 0.0 | 9.7 | 0.00 | 0.00 | 0.00 | 44 | 1012.4 |
| 20260507174528 | 15 | 66 | 1.6 | 12.9 | 0.00 | 0.00 | 0.00 | 43 | 1012.5 |
| 20260507173031 | 16 | 21 | 0.0 | 8.0 | 0.00 | 0.00 | 0.00 | 43 | 1012.4 |
| 20260507171527 | 16 | 35 | 0.0 | 8.0 | 0.00 | 0.00 | 0.00 | 43 | 1012.4 |
| 20260507170026 | 16 | 42 | 0.0 | 3.2 | 0.00 | 0.00 | 0.00 | 43 | 1012.4 |
| 20260507164527 | 16 | 39 | 0.0 | 1.6 | 0.00 | 0.00 | 0.00 | 43 | 1012.4 |
| 20260507163026 | 17 | 41 | 0.0 | 0.0 | 0.00 | 0.00 | 0.00 | 43 | 1012.3 |
| 20260507161525 | 17 | 41 | 0.0 | 4.8 | 0.00 | 0.00 | 0.00 | 43 | 1012.1 |
| 20260507160021 | 18 | 43 | 0.0 | 1.6 | 0.00 | 0.00 | 0.00 | 42 | 1012.0 |
| 20260507154520 | 18 | 32 | 0.0 | 3.2 | 0.00 | 0.00 | 0.00 | 40 | 1011.7 |
| 20260507153025 | 19 | 37 | 0.0 | 3.2 | 0.00 | 0.00 | 0.00 | 39 | 1011.5 |
| 20260507151519 | 20 | 37 | 0.0 | 6.4 | 0.00 | 0.00 | 0.00 | 38 | 1011.4 |
| 20260507150019 | 20 | 16 | 0.0 | 1.6 | 0.00 | 0.00 | 0.00 | 38 | 1011.5 |
| 20260507144520 | 20 | 44 | 0.0 | 11.3 | 0.00 | 0.00 | 0.00 | 38 | 1011.4 |
| 20260507143018 | 20 | 359 | 1.6 | 8.0 | 0.00 | 0.00 | 0.00 | 37 | 1011.4 |
| 20260507141517 | 21 | 43 | 0.0 | 6.4 | 0.00 | 0.00 | 0.00 | 37 | 1011.3 |
| 20260507140025 | 21 | 30 | 0.0 | 6.4 | 0.00 | 0.00 | 0.00 | 36 | 1011.4 |
| 20260507134516 | 21 | 42 | 0.0 | 9.7 | 0.00 | 0.00 | 0.00 | 35 | 1011.5 |
| 20260507133015 | 21 | 54 | 1.6 | 11.3 | 0.00 | 0.00 | 0.00 | 35 | 1011.5 |
| 20260507131514 | 21 | 349 | 0.0 | 6.4 | 0.00 | 0.00 | 0.00 | 35 | 1011.5 |
| 20260507130014 | 21 | 54 | 1.6 | 11.3 | 0.00 | 0.00 | 0.00 | 37 | 1011.6 |
| 20260507124517 | 21 | 31 | 6.4 | 14.5 | 0.00 | 0.00 | 0.00 | 36 | 1011.7 |
| 20260507123021 | 21 | 39 | 1.6 | 16.1 | 0.00 | 0.00 | 0.00 | 35 | 1011.7 |
| 20260507121512 | 21 | 58 | 3.2 | 14.5 | 0.00 | 0.00 | 0.00 | 37 | 1011.6 |
| 20260507120012 | 21 | 62 | 3.2 | 12.9 | 0.00 | 0.00 | 0.00 | 38 | 1011.5 |
| 20260507114512 | 21 | 44 | 3.2 | 14.5 | 0.00 | 0.00 | 0.00 | 36 | 1011.7 |
| 20260507113011 | 21 | 8 | 0.0 | 8.0 | 0.00 | 0.00 | 0.00 | 37 | 1011.7 |
| 20260507111510 | 21 | 310 | 3.2 | 16.1 | 0.00 | 0.00 | 0.00 | 38 | 1011.7 |
| 20260507110012 | 21 | 290 | 0.0 | 11.3 | 0.00 | 0.00 | 0.00 | 39 | 1011.6 |
| 20260507104507 | 21 | 324 | 0.0 | 8.0 | 0.00 | 0.00 | 0.00 | 37 | 1011.6 |
| 20260507103009 | 21 | 314 | 1.6 | 9.7 | 0.00 | 0.00 | 0.00 | 40 | 1011.6 |
| 20260507101509 | 21 | 57 | 0.0 | 8.0 | 0.00 | 0.00 | 0.00 | 42 | 1011.5 |
| 20260507100008 | 21 | 33 | 1.6 | 16.1 | 0.00 | 0.00 | 0.00 | 42 | 1011.6 |
| 20260507094504 | 21 | 91 | 0.0 | 1.6 | 0.00 | 0.00 | 0.00 | 43 | 1011.5 |
| 20260507093003 | 20 | 56 | 1.6 | 19.3 | 0.00 | 0.00 | 0.00 | 41 | 1011.6 |
| 20260507091505 | 21 | 42 | 0.0 | 14.5 | 0.00 | 0.00 | 0.00 | 43 | 1011.5 |
| 20260507090113 | 21 | 314 | 1.6 | 9.7 | 0.00 | 0.00 | 0.00 | 45 | 1011.4 |
| 20260507084600 | 20 | 350 | 0.0 | 9.7 | 0.00 | 0.00 | 0.00 | 45 | 1011.5 |
| 20260507083102 | 20 | 28 | 1.6 | 17.7 | 0.00 | 0.00 | 0.00 | 47 | 1011.4 |
| 20260507081559 | 20 | 312 | 1.6 | 11.3 | 0.00 | 0.00 | 0.00 | 48 | 1011.5 |
| 20260507080054 | 20 | 66 | 1.6 | 11.3 | 0.00 | 0.00 | 0.00 | 49 | 1011.5 |
| 20260507074553 | 20 | 40 | 1.6 | 14.5 | 0.00 | 0.00 | 0.00 | 53 | 1011.5 |
| 20260507073100 | 20 | 341 | 0.0 | 14.5 | 0.00 | 0.00 | 0.00 | 53 | 1011.5 |
| 20260507071546 | 19 | 50 | 3.2 | 17.7 | 0.00 | 0.00 | 0.00 | 54 | 1011.4 |
| 20260507070119 | 18 | 49 | 6.4 | 17.7 | 0.00 | 0.00 | 0.00 | 56 | 1011.3 |
| 20260507064547 | 18 | 13 | 6.4 | 19.3 | 0.00 | 0.00 | 0.00 | 58 | 1011.2 |
| 20260507063040 | 18 | 47 | 6.4 | 17.7 | 0.00 | 0.00 | 0.00 | 60 | 1011.3 |
| 20260507061538 | 18 | 33 | 4.8 | 19.3 | 0.00 | 0.00 | 0.00 | 61 | 1011.1 |
| 20260507060042 | 18 | 48 | 1.6 | 16.1 | 0.00 | 0.00 | 0.00 | 63 | 1011.1 |
| 20260507054536 | 17 | 11 | 1.6 | 12.9 | 0.00 | 0.00 | 0.00 | 64 | 1011.0 |
| 20260507053039 | 17 | 37 | 1.6 | 17.7 | 0.00 | 0.00 | 0.00 | 65 | 1011.0 |
| 20260507051534 | 17 | 45 | 4.8 | 17.7 | 0.00 | 0.00 | 0.00 | 68 | 1010.9 |
| 20260507050034 | 17 | 23 | 0.0 | 19.3 | 0.00 | 0.00 | 0.00 | 71 | 1010.8 |
| 20260507044543 | 16 | 354 | 1.6 | 16.1 | 0.00 | 0.00 | 0.00 | 71 | 1010.7 |
| 20260507043037 | 16 | 354 | 0.0 | 16.1 | 0.00 | 0.00 | 0.00 | 72 | 1010.5 |
| 20260507041528 | 16 | 27 | 6.4 | 20.9 | 0.00 | 0.00 | 0.00 | 72 | 1010.4 |
| 20260507040027 | 16 | 27 | 3.2 | 17.7 | 0.00 | 0.00 | 0.00 | 73 | 1010.2 |
| 20260507034527 | 16 | 354 | 3.2 | 16.1 | 0.00 | 0.00 | 0.00 | 74 | 1010.1 |
| 20260507033026 | 16 | 29 | 1.6 | 14.5 | 0.00 | 0.00 | 0.00 | 76 | 1009.9 |
| 20260507031523 | 15 | 339 | 1.6 | 14.5 | 0.00 | 0.00 | 0.00 | 77 | 1009.7 |
| 20260507030022 | 15 | 330 | 1.6 | 16.1 | 0.00 | 0.00 | 0.00 | 77 | 1009.4 |
| 20260507024521 | 15 | 335 | 0.0 | 12.9 | 0.00 | 0.00 | 0.00 | 77 | 1009.3 |
| 20260507023019 | 15 | 35 | 0.0 | 11.3 | 0.00 | 0.00 | 0.00 | 77 | 1009.2 |
| 20260507021516 | 15 | 299 | 0.0 | 4.8 | 0.00 | 0.00 | 0.00 | 77 | 1008.9 |
| 20260507020015 | 14 | 359 | 0.0 | 3.2 | 0.00 | 0.00 | 0.00 | 78 | 1008.7 |
| 20260507014514 | 14 | 318 | 0.0 | 3.2 | 0.00 | 0.00 | 0.00 | 78 | 1008.5 |
| 20260507013012 | 14 | 341 | 0.0 | 1.6 | 0.00 | 0.00 | 0.00 | 78 | 1008.3 |
| 20260507011510 | 13 | 334 | 0.0 | 0.0 | 0.00 | 0.00 | 0.00 | 78 | 1008.0 |
| 20260507010009 | 14 | 328 | 0.0 | 0.0 | 0.00 | 0.00 | 0.00 | 76 | 1007.9 |
| 20260507004506 | 14 | 338 | 0.0 | 0.0 | 0.00 | 0.00 | 0.00 | 76 | 1007.7 |
| 20260507003005 | 14 | 347 | 0.0 | 0.0 | 0.00 | 0.00 | 0.00 | 75 | 1007.6 |
| 20260507001508 | 14 | 347 | 0.0 | 0.0 | 0.00 | 0.00 | 0.00 | 75 | 1007.4 |
| 20260507000002 | 14 | 347 | 0.0 | 0.0 | 0.00 | 0.00 | 0.00 | 73 | 1007.3 |
| 20260506234600 | 14 | 349 | 0.0 | 0.0 | 0.00 | 0.00 | 0.00 | 72 | 1007.2 |
| 20260506233057 | 15 | 349 | 0.0 | 0.0 | 0.00 | 0.00 | 0.00 | 72 | 1007.0 |
| 20260506231554 | 15 | 305 | 0.0 | 0.0 | 0.00 | 0.00 | 0.00 | 72 | 1006.8 |
| 20260506224550 | 15 | 302 | 0.0 | 0.0 | 0.00 | 0.00 | 0.00 | 70 | 1006.4 |
| 20260506223049 | 15 | 302 | 0.0 | 0.0 | 0.00 | 0.00 | 0.00 | 71 | 1006.3 |
| 20260506221548 | 15 | 302 | 0.0 | 0.0 | 0.00 | 0.00 | 0.00 | 69 | 1006.1 |
| 20260506220049 | 15 | 302 | 0.0 | 0.0 | 0.00 | 0.00 | 0.00 | 70 | 1006.2 |
| 20260506214545 | 15 | 302 | 0.0 | 0.0 | 0.00 | 0.00 | 0.00 | 68 | 1005.9 |
| 20260506213042 | 15 | 302 | 0.0 | 0.0 | 0.00 | 0.00 | 0.00 | 67 | 1005.8 |
| 20260506211541 | 16 | 330 | 0.0 | 0.0 | 0.00 | 0.00 | 0.00 | 66 | 1006.0 |
| 20260506210036 | 16 | 330 | 0.0 | 0.0 | 0.00 | 0.00 | 0.00 | 64 | 1006.0 |
| 20260506204534 | 17 | 330 | 0.0 | 1.6 | 0.00 | 0.00 | 0.00 | 62 | 1005.9 |